Regional Weather Roundup
Issued by NWS Green Bay, WI

Home | Current Version | Previous Version | Graphics & Text | Print | Product List | Glossary Off
Versions: 1 2 3 4 5 6 7 8 9 10 11 12 13 14 15 16 17 18 19 20 21 22 23 24 25 26 27 28 29 30 31 32 33 34 35 36 37 38 39 40 41 42 43 44 45 46 47 48 49 50

000
ASUS43 KGRB 301710
RWRGRB

NORTH-CENTRAL AND NORTHEAST WISCONSIN REGIONAL WEATHER ROUNDUP
NATIONAL WEATHER SERVICE GREEN BAY WI
1100 AM CST FRI JAN 30 2015

WIZ005-009-010>012-018-019-301800-
NORTH CENTRAL WISCONSIN

CITY           SKY/WX    TMP DP  RH WIND       PRES   REMARKS
IRONWOOD       PTSUNNY   12   5  73 SW6       30.41F WCI   3
MANITOWISH WTR PTSUNNY   11   2  67 CALM      30.41F
ARBOR VITAE    MOSUNNY   13   4  68 CALM      30.41F
EAGLE RIVER    MOSUNNY   11   2  67 SW5       30.41S WCI   3
LAND O LAKES   CLOUDY    13   4  68 SW3       30.41S
RHINELANDER    PTSUNNY   13   3  64 W5        30.42S WCI   5
PHILLIPS       CLOUDY    11   3  71 CALM      30.43F
ANTIGO         PTSUNNY   12   4  71 SE3       30.44S
TOMAHAWK       CLOUDY    12   2  65 CALM      30.44F
MERRILL        CLOUDY    14   4  65 W3        30.46S
$$

WIZ013-073-301800-
NORTHEAST WISCONSIN

CITY           SKY/WX    TMP DP  RH WIND       PRES   REMARKS
IRON MOUNTAIN  CLOUDY    13   2  61 VRB3      30.44F
MARINETTE      SUNNY     14   1  57 CALM      30.51F
OCONTO         MOSUNNY   16   4  59 MISG      30.51F
$$

WIZ017-030-035>037-045-301800-
CENTRAL WISCONSIN

CITY           SKY/WX    TMP DP  RH WIND       PRES   REMARKS
MEDFORD        PTSUNNY   11   3  70 CALM      30.45F
WAUSAU         CLOUDY    14   4  64 CALM      30.46F
MOSINEE        SUNNY     14   5  67 VRB3      30.49S
MARSHFIELD     MOSUNNY   13   5  70 CALM      30.48F
WISC RAPIDS    MOSUNNY   17   5  59 NW3       30.52R
STEVENS POINT  CLOUDY    14   3  61 SW6       30.50S WCI   5
WAUPACA        CLOUDY    21   6  52 CALM      30.51F
SHAWANO        SUNNY     19   5  54 CALM      30.52S
CLINTONVILLE   MOSUNNY   19   5  53 CALM      30.52R
$$

WIZ038-039-048-051-301800-
FOX VALLEY

CITY           SKY/WX    TMP DP  RH WIND       PRES   REMARKS
NWS GREEN BAY  MOSUNNY   19   6  57 NW7       30.52F WCI  10
APPLETON       PTSUNNY   18   3  53 CALM      30.51S
OSHKOSH        SUNNY     19   6  57 NW3       30.51F
FOND DU LAC    SUNNY     20   5  52 CALM      30.51F
$$

WIZ022-050-052-301800-
EAST CENTRAL WISCONSIN

CITY           SKY/WX    TMP DP  RH WIND       PRES   REMARKS
STURGEON BAY   SUNNY     12   1  62 N8        30.53F WCI   1
MANITOWOC      SUNNY     22   8  55 N9        30.52F
SHEBOYGAN      SUNNY     21   7  54 VRB3      30.52S
$$

LMZ563-521-522-541>543-301800-
LAKESHORE

STATION/POSITION TIME  TEMP    WIND        PRES    VSBY  WAVE
                       AIR SEA DIR/SP/G                  HT/PER
                 (UTC) (F)     (DEG/KT/KT) (MB)    (MI)  (FT/S)
SHEBOYGAN LKSHOR 1700   18      10/  5/  6 1035.1F
KEWAUNEE LKSHORE 1600   16     350/  6/ 11 1032.6F
TWO RIVERS CG    1600   17                 1033.7      6   1
NORTHPORT PIER   1700   15     310/ 10/ 16 1033.2F
STURGEON BAY CG  1600   16     320/  5     1033.4      6   1
CHAMBERS ISLAND  1700   18     320/  6/ 10 1033.5S
MENOMINEE LKSHOR 1600   13     320/  7     1034.2R
$$



USA.gov is the U.S. government's official web portal to all federal, state and local government web resources and services.